Regional Weather Roundup
Issued by NWS

Home | Current Version | Previous Version | Text Only | Print | Product List | Glossary Off
Versions: 1 2 3 4 5 6 7 8 9 10 11 12 13 14 15 16 17 18 19 20 21 22 23 24 25 26 27 28 29 30 31 32 33 34 35 36 37 38 39 40 41 42 43 44 45 46 47 48 49 50

000
ASUS43 KIND 212309
RWRIN

WEATHER ROUNDUP FOR INDIANA
NATIONAL WEATHER SERVICE INDIANAPOLIS IN
600 PM EST SUN JAN 21 2018

NOTE: "FAIR" INDICATES FEW OR NO CLOUDS BELOW 12,000 FEET WITH NO
SIGNIFICANT WEATHER AND/OR OBSTRUCTIONS TO VISIBILITY.

* - STATION DOES NOT REPORT WEATHER SUCH AS PRECIPITATION OR FOG.

+ - STATION NOT QUALITY CONTROLLED BY THE NATIONAL WEATHER SERVICE.
    USE DATA WITH CAUTION...ESPECIALLY DEWPOINT AND RELATIVE
    HUMIDITY OBSERVATIONS.

INZ001>003-010>013-019-020-220000-
NORTHWEST INDIANA

CITY           SKY/WX    TMP DP  RH WIND       PRES   REMARKS
GARY /AIRPORT/ FOG       46  45  93 VRB3      29.92S VSB 1
KNOX *+        CLOUDY    41  41 100 SE7       29.94R VSB 1/4
LA PORTE +     FOG       39  39 100 E3        29.94S VSB<1/4
MICHIGAN CITY+ CLOUDY    43  43 100 S6        29.93F FOG
MONTICELLO +   FOG       46  45  95 S7        29.94S VSB 1/2
RENSSELAER +   FOG       43  39  87 S7        29.93S VSB 1/4
VALPARAISO     FOG       44  44 100 SE7       29.93S VSB 1/4

$$

LMZ046-743>745-220000-
SOUTHERN LAKE MICHIGAN

STATION/POSITION TIME  TEMP    WIND        PRES    WAVE
                       AIR SEA DIR/SP/G            HT
                 (UTC) (F)     (DEG/KT/KT) (MB)    (FT)
BURNS HARBOR     2240   45     170/  5/  8 1013.9S
MICHIGAN CITY    2240   43     130/  4/  5   N/A

$$

INZ004-005-014>016-021>024-220000-
NORTH CENTRAL INDIANA

CITY           SKY/WX    TMP DP  RH WIND       PRES   REMARKS
ELKHART        LGT RAIN  41  39  93 E3        29.95S VSB 1/4
GOSHEN         FOG       43  42  97 SE3       29.96R VSB 1/4
LOGANSPORT +   FOG       43  43 100 S7        29.97R VSB<1/4
PERU/GRISSOM   FOG       47  47 100 S8        29.96R VSB 1
ROCHESTER +    FOG       46 N/A N/A S6        29.96S VSB 1/2
SOUTH BEND     FOG       41  41 100 E6        29.95S VSB 1/4
WARSAW +       FOG       43  43 100 S3        29.96S VSB 1/2

$$

INZ006>009-017-018-025>027-220000-
NORTHEAST INDIANA

CITY           SKY/WX    TMP DP  RH WIND       PRES   REMARKS
AUBURN +       FOG      N/A N/A N/A CALM      29.99S VSB 1/4
FORT WAYNE     DRZL/FOG  45  45 100 S6        29.99S VSB 1/4
HUNTINGTON +   FOG       45  44  96 S5        29.98S VSB 1/4
KENDALLVILLE + FOG       42  42 100 SE6       29.97S VSB 1/4

$$

INZ028-029-035-036-043>045-051>053-220000-
WEST CENTRAL INDIANA

CITY           SKY/WX    TMP DP  RH WIND       PRES   REMARKS
CRAWFORDSVL +  CLOUDY    45  45 100 MISG      29.96S FOG
GREENCASTLE +  CLOUDY    48  48 100 S6        29.98S FOG
LAFAYETTE      FOG       47  47 100 S5        29.95R VSB 3/4
TERRE HAUTE    CLOUDY    49  47  93 S12       29.98R FOG

$$

INZ030>032-037>040-046>048-054>057-064-065-220000-
CENTRAL INDIANA

CITY           SKY/WX    TMP DP  RH WIND       PRES   REMARKS
COLUMBUS       CLOUDY    48  46  93 S12       30.02S FOG
FRANKFORT +    FOG       47  47  98 S5        29.98S VSB 3/4
GREENWOOD *+   CLOUDY    50  49  95 S6        30.00S
INDIANAPOLIS   DRZL/FOG  49  49 100 S8        29.99S VSB 1
-EAGLE CREEK   CLOUDY    49  48  97 S6        29.98R FOG
MARION +       FOG       45  45 100 CALM      29.99S VSB 3/4
MT COMFORT *+  CLOUDY    46  46 100 S7        30.00S
SHELBYVILLE    CLOUDY    51  47  86 S13       30.00S
ZIONSVILLE +   CLOUDY    46  46 100 S9        29.98S FOG

$$

INZ033-034-041-042-049-050-058-059-220000-
EAST CENTRAL INDIANA

CITY           SKY/WX    TMP DP  RH WIND       PRES   REMARKS
MUNCIE         CLOUDY    50  47  89 S9        29.99S FOG
RICHMOND +     CLOUDY    41  41 100 S7        30.03S

$$

INZ060-061-067>069-081>083-085>088-220000-
SOUTHWEST INDIANA

CITY           SKY/WX    TMP DP  RH WIND       PRES   REMARKS
EVANSVILLE     CLOUDY    53  51  93 S6        30.00S
HUNTINGBURG +  CLOUDY    52  49  89 S5        30.01F
WASHINGTON +   CLOUDY    47  45  94 S9        30.00S FOG

$$

INZ062-063-066-070>080-084-089>092-220000-
SOUTH CENTRAL AND SOUTHEAST INDIANA

CITY           SKY/WX    TMP DP  RH WIND       PRES   REMARKS
BATESVILLE *+    N/A    N/A N/A N/A MISG        N/A
BEDFORD +      CLOUDY    50  48  93 SE8       30.01  FOG
BLOOMINGTON    CLOUDY    51  50  96 S8        30.00R FOG
FRENCH LICK *+ CLOUDY    52 N/A N/A S3        30.02S
MADISON *+     CLOUDY    52  48  87 S3        30.05F
NORTH VERNON + CLOUDY    50  48  93 S8        30.03
SEYMOUR +      CLOUDY    52  48  87 S7        30.02F

$$





USA.gov is the U.S. government's official web portal to all federal, state and local government web resources and services.